Time,TemperatureF,DewpointF,PressureIn,WindDirection,WindDirectionDegrees,WindSpeedMPH,WindSpeedGustMPH,Humidity,HourlyPrecipIn,Conditions,Clouds,dailyrainin,SoftwareType,DateUTC
2013-07-30 00:00:00,59.5,39.4,30.19,SSW,210,0.0,1.0,47,0.00,,,0.00,meteohub,2013-07-30 07:00:00,
2013-07-30 00:05:00,59.5,39.4,30.19,SSE,165,0.0,1.0,47,0.00,,,0.00,meteohub,2013-07-30 07:05:00,
2013-07-30 00:10:00,59.4,39.2,30.18,SSE,167,0.0,1.0,47,0.00,,,0.00,meteohub,2013-07-30 07:10:00,
2013-07-30 00:15:00,59.2,39.0,30.19,ESE,113,0.0,1.0,47,0.00,,,0.00,meteohub,2013-07-30 07:15:00,
2013-07-30 00:20:00,58.8,39.2,30.19,SE,127,0.0,1.0,48,0.00,,,0.00,meteohub,2013-07-30 07:20:00,
2013-07-30 00:26:00,58.6,39.6,30.19,SSE,150,0.0,1.0,49,0.00,,,0.00,meteohub,2013-07-30 07:26:00,
2013-07-30 00:31:00,58.3,39.2,30.19,SE,130,0.0,1.0,49,0.00,,,0.00,meteohub,2013-07-30 07:31:00,
2013-07-30 00:36:00,58.1,39.0,30.19,SE,130,0.0,1.0,49,0.00,,,0.00,meteohub,2013-07-30 07:36:00,
2013-07-30 00:41:00,57.7,38.7,30.19,SE,130,0.0,1.0,49,0.00,,,0.00,meteohub,2013-07-30 07:41:00,
2013-07-30 00:46:00,57.6,39.0,30.19,SE,129,0.0,1.0,50,0.00,,,0.00,meteohub,2013-07-30 07:46:00,
2013-07-30 00:51:00,57.4,38.8,30.19,SE,129,1.0,1.0,50,0.00,,,0.00,meteohub,2013-07-30 07:51:00,
2013-07-30 00:56:00,57.2,39.2,30.19,ESE,110,0.0,1.0,51,0.00,,,0.00,meteohub,2013-07-30 07:56:00,
2013-07-30 01:01:00,56.8,38.8,30.19,ESE,116,0.0,1.0,51,0.00,,,0.00,meteohub,2013-07-30 08:01:00,
2013-07-30 01:06:00,56.7,39.2,30.20,ESE,116,0.0,1.0,52,0.00,,,0.00,meteohub,2013-07-30 08:06:00,
2013-07-30 01:11:00,56.5,39.0,30.20,ESE,116,0.0,1.0,52,0.00,,,0.00,meteohub,2013-07-30 08:11:00,
2013-07-30 01:16:00,56.1,38.7,30.20,ESE,115,0.0,1.0,52,0.00,,,0.00,meteohub,2013-07-30 08:16:00,
2013-07-30 01:21:00,55.9,38.5,30.20,ESE,116,0.0,1.0,52,0.00,,,0.00,meteohub,2013-07-30 08:21:00,
2013-07-30 01:26:00,55.6,38.7,30.20,ESE,117,0.0,1.0,53,0.00,,,0.00,meteohub,2013-07-30 08:26:00,
2013-07-30 01:31:00,55.4,39.0,30.20,ESE,116,0.0,1.0,54,0.00,,,0.00,meteohub,2013-07-30 08:31:00,
2013-07-30 01:37:00,55.2,38.8,30.20,SE,139,0.0,1.0,54,0.00,,,0.00,meteohub,2013-07-30 08:37:00,
2013-07-30 01:42:00,55.0,39.2,30.20,SE,141,0.0,1.0,55,0.00,,,0.00,meteohub,2013-07-30 08:42:00,
2013-07-30 01:47:00,54.7,38.8,30.20,SSE,155,0.0,1.0,55,0.00,,,0.00,meteohub,2013-07-30 08:47:00,
2013-07-30 01:52:00,54.3,39.0,30.20,SSE,148,0.0,1.0,56,0.00,,,0.00,meteohub,2013-07-30 08:52:00,
2013-07-30 01:57:00,54.1,38.8,30.21,SSE,155,0.0,1.0,56,0.00,,,0.00,meteohub,2013-07-30 08:57:00,
2013-07-30 02:02:00,54.0,39.0,30.20,SSE,153,0.0,1.0,57,0.00,,,0.00,meteohub,2013-07-30 09:02:00,
2013-07-30 02:07:00,53.8,38.8,30.20,SSE,153,0.0,1.0,57,0.00,,,0.00,meteohub,2013-07-30 09:07:00,
2013-07-30 02:12:00,53.4,39.0,30.20,SSE,154,0.0,0.0,58,0.00,,,0.00,meteohub,2013-07-30 09:12:00,
2013-07-30 02:17:00,53.2,38.8,30.20,SSE,154,0.0,0.0,58,0.00,,,0.00,meteohub,2013-07-30 09:17:00,
2013-07-30 02:22:00,53.1,38.7,30.21,SSE,153,0.0,0.0,58,0.00,,,0.00,meteohub,2013-07-30 09:22:00,
2013-07-30 02:27:00,52.9,39.0,30.20,SSE,152,0.0,0.0,59,0.00,,,0.00,meteohub,2013-07-30 09:27:00,
2013-07-30 02:33:00,52.5,38.7,30.21,SSE,155,0.0,0.0,59,0.00,,,0.00,meteohub,2013-07-30 09:33:00,
2013-07-30 02:38:00,52.5,39.0,30.21,SSE,155,0.0,1.0,60,0.00,,,0.00,meteohub,2013-07-30 09:38:00,
2013-07-30 02:43:00,52.3,38.8,30.21,SE,140,1.0,1.0,60,0.00,,,0.00,meteohub,2013-07-30 09:43:00,
2013-07-30 02:48:00,52.2,38.7,30.21,SE,144,1.0,2.0,60,0.00,,,0.00,meteohub,2013-07-30 09:48:00,
2013-07-30 02:53:00,52.0,39.0,30.21,SE,142,1.0,2.0,61,0.00,,,0.00,meteohub,2013-07-30 09:53:00,
2013-07-30 02:58:00,52.0,39.0,30.21,SSE,162,1.0,2.0,61,0.00,,,0.00,meteohub,2013-07-30 09:58:00,
2013-07-30 03:03:00,51.8,39.2,30.21,South,169,0.0,2.0,62,0.00,,,0.00,meteohub,2013-07-30 10:03:00,
2013-07-30 03:08:00,51.8,39.2,30.21,SSE,148,0.0,2.0,62,0.00,,,0.00,meteohub,2013-07-30 10:08:00,
2013-07-30 03:13:00,51.8,39.2,30.21,South,169,0.0,2.0,62,0.00,,,0.00,meteohub,2013-07-30 10:13:00,
2013-07-30 03:18:00,51.6,39.0,30.22,SE,142,0.0,2.0,62,0.00,,,0.00,meteohub,2013-07-30 10:18:00,
2013-07-30 03:23:00,51.6,39.0,30.22,SSE,153,0.0,2.0,62,0.00,,,0.00,meteohub,2013-07-30 10:23:00,
2013-07-30 03:28:00,51.4,39.2,30.22,South,186,0.0,1.0,63,0.00,,,0.00,meteohub,2013-07-30 10:28:00,
2013-07-30 03:33:00,51.3,39.0,30.22,SE,144,0.0,2.0,63,0.00,,,0.00,meteohub,2013-07-30 10:33:00,
2013-07-30 03:38:00,51.1,38.8,30.22,SSE,168,0.0,2.0,63,0.00,,,0.00,meteohub,2013-07-30 10:38:00,
2013-07-30 03:43:00,51.1,39.4,30.21,SE,146,0.0,1.0,64,0.00,,,0.00,meteohub,2013-07-30 10:43:00,
2013-07-30 03:48:00,50.9,39.2,30.22,SSE,155,0.0,1.0,64,0.00,,,0.00,meteohub,2013-07-30 10:48:00,
2013-07-30 03:53:00,50.7,39.0,30.22,SSE,157,0.0,1.0,64,0.00,,,0.00,meteohub,2013-07-30 10:53:00,
2013-07-30 03:58:00,50.5,38.8,30.22,SSE,165,0.0,1.0,64,0.00,,,0.00,meteohub,2013-07-30 10:58:00,
2013-07-30 04:03:00,50.4,39.0,30.22,SE,138,0.0,2.0,65,0.00,,,0.00,meteohub,2013-07-30 11:03:00,
2013-07-30 04:09:00,50.4,39.0,30.22,SE,146,1.0,2.0,65,0.00,,,0.00,meteohub,2013-07-30 11:09:00,
2013-07-30 04:14:00,50.2,38.8,30.22,SSE,161,0.0,2.0,65,0.00,,,0.00,meteohub,2013-07-30 11:14:00,
2013-07-30 04:19:00,50.0,38.7,30.22,SSE,148,0.0,2.0,65,0.00,,,0.00,meteohub,2013-07-30 11:19:00,
2013-07-30 04:24:00,49.8,38.8,30.22,SSE,156,2.0,2.0,66,0.00,,,0.00,meteohub,2013-07-30 11:24:00,
2013-07-30 04:29:00,49.8,38.8,30.22,SSE,148,1.0,2.0,66,0.00,,,0.00,meteohub,2013-07-30 11:29:00,
2013-07-30 04:34:00,49.8,38.8,30.22,SSE,148,1.0,2.0,66,0.00,,,0.00,meteohub,2013-07-30 11:34:00,
2013-07-30 04:39:00,49.8,39.4,30.22,SSE,154,1.0,2.0,67,0.00,,,0.00,meteohub,2013-07-30 11:39:00,
2013-07-30 04:44:00,49.6,39.2,30.23,SSE,153,2.0,2.0,67,0.00,,,0.00,meteohub,2013-07-30 11:44:00,
2013-07-30 04:49:00,49.6,39.2,30.23,SSW,200,0.0,2.0,67,0.00,,,0.00,meteohub,2013-07-30 11:49:00,
2013-07-30 04:54:00,49.5,39.0,30.23,SSE,153,1.0,2.0,67,0.00,,,0.00,meteohub,2013-07-30 11:54:00,
2013-07-30 04:59:00,49.5,39.0,30.23,SSE,153,1.0,2.0,67,0.00,,,0.00,meteohub,2013-07-30 11:59:00,
2013-07-30 05:04:00,49.3,38.8,30.23,SSE,155,0.0,2.0,67,0.00,,,0.00,meteohub,2013-07-30 12:04:00,
2013-07-30 05:09:00,49.3,39.2,30.22,SSE,167,0.0,2.0,68,0.00,,,0.00,meteohub,2013-07-30 12:09:00,
2013-07-30 05:14:00,49.3,39.2,30.23,SE,146,2.0,2.0,68,0.00,,,0.00,meteohub,2013-07-30 12:14:00,
2013-07-30 05:19:00,49.3,39.2,30.23,SSE,168,0.0,2.0,68,0.00,,,0.00,meteohub,2013-07-30 12:19:00,
2013-07-30 05:24:00,49.1,39.0,30.23,SSE,161,1.0,2.0,68,0.00,,,0.00,meteohub,2013-07-30 12:24:00,
2013-07-30 05:29:00,49.1,39.0,30.23,SSE,159,0.0,2.0,68,0.00,,,0.00,meteohub,2013-07-30 12:29:00,
2013-07-30 05:34:00,49.3,39.2,30.24,SSE,156,0.0,2.0,68,0.00,,,0.00,meteohub,2013-07-30 12:34:00,
2013-07-30 05:40:00,49.3,39.2,30.23,SSE,161,1.0,2.0,68,0.00,,,0.00,meteohub,2013-07-30 12:40:00,
2013-07-30 05:45:00,49.3,39.6,30.24,SSE,161,0.0,1.0,69,0.00,,,0.00,meteohub,2013-07-30 12:45:00,
2013-07-30 05:50:00,49.3,39.6,30.24,SSE,159,0.0,1.0,69,0.00,,,0.00,meteohub,2013-07-30 12:50:00,
2013-07-30 05:55:00,49.3,39.6,30.24,SE,136,0.0,1.0,69,0.00,,,0.00,meteohub,2013-07-30 12:55:00,
2013-07-30 06:00:00,49.5,39.4,30.24,SSW,202,0.0,1.0,68,0.00,,,0.00,meteohub,2013-07-30 13:00:00,
2013-07-30 06:05:00,49.5,39.4,30.24,SSE,149,0.0,1.0,68,0.00,,,0.00,meteohub,2013-07-30 13:05:00,
2013-07-30 06:10:00,49.5,39.4,30.24,SE,146,0.0,1.0,68,0.00,,,0.00,meteohub,2013-07-30 13:10:00,
2013-07-30 06:15:00,49.5,39.4,30.24,SSE,164,0.0,1.0,68,0.00,,,0.00,meteohub,2013-07-30 13:15:00,
2013-07-30 06:20:00,49.5,39.4,30.25,South,173,0.0,2.0,68,0.00,,,0.00,meteohub,2013-07-30 13:20:00,
2013-07-30 06:25:00,49.6,39.6,30.24,SSE,157,0.0,2.0,68,0.00,,,0.00,meteohub,2013-07-30 13:25:00,
2013-07-30 06:30:00,50.0,39.9,30.24,SSE,162,0.0,2.0,68,0.00,,,0.00,meteohub,2013-07-30 13:30:00,
2013-07-30 06:35:00,50.4,39.7,30.24,SSE,160,1.0,2.0,67,0.00,,,0.00,meteohub,2013-07-30 13:35:00,
2013-07-30 06:40:00,50.5,39.9,30.24,SSW,194,0.0,2.0,67,0.00,,,0.00,meteohub,2013-07-30 13:40:00,
2013-07-30 06:45:00,51.1,40.1,30.25,SE,130,0.0,2.0,66,0.00,,,0.00,meteohub,2013-07-30 13:45:00,
2013-07-30 06:50:00,51.4,40.1,30.25,SE,140,1.0,2.0,65,0.00,,,0.00,meteohub,2013-07-30 13:50:00,
2013-07-30 06:55:00,51.6,40.3,30.24,SE,133,0.0,1.0,65,0.00,,,0.00,meteohub,2013-07-30 13:55:00,
2013-07-30 07:00:00,52.0,40.6,30.25,SE,140,0.0,1.0,65,0.00,,,0.00,meteohub,2013-07-30 14:00:00,
2013-07-30 07:05:00,52.3,41.0,30.25,SE,137,0.0,1.0,65,0.00,,,0.00,meteohub,2013-07-30 14:05:00,
2013-07-30 07:10:00,52.5,41.2,30.25,SE,138,0.0,1.0,65,0.00,,,0.00,meteohub,2013-07-30 14:10:00,
2013-07-30 07:15:00,52.9,41.4,30.25,SE,139,0.0,2.0,65,0.00,,,0.00,meteohub,2013-07-30 14:15:00,
2013-07-30 07:20:00,53.2,41.0,30.24,SE,144,1.0,2.0,63,0.00,,,0.00,meteohub,2013-07-30 14:20:00,
2013-07-30 07:26:00,54.0,41.7,30.25,SE,144,1.0,2.0,63,0.00,,,0.00,meteohub,2013-07-30 14:26:00,
2013-07-30 07:31:00,54.7,41.9,30.24,SE,141,1.0,2.0,62,0.00,,,0.00,meteohub,2013-07-30 14:31:00,
2013-07-30 07:36:00,55.6,42.3,30.24,SE,144,1.0,2.0,61,0.00,,,0.00,meteohub,2013-07-30 14:36:00,
2013-07-30 07:41:00,56.7,42.4,30.24,SSE,161,0.0,2.0,59,0.00,,,0.00,meteohub,2013-07-30 14:41:00,
2013-07-30 07:46:00,57.7,43.0,30.24,SSE,150,0.0,2.0,58,0.00,,,0.00,meteohub,2013-07-30 14:46:00,
2013-07-30 07:51:00,58.8,43.7,30.25,SE,126,0.0,2.0,57,0.00,,,0.00,meteohub,2013-07-30 14:51:00,
2013-07-30 07:56:00,60.3,44.1,30.25,SE,140,1.0,1.0,55,0.00,,,0.00,meteohub,2013-07-30 14:56:00,
2013-07-30 08:01:00,61.5,44.2,30.25,ESE,108,1.0,2.0,53,0.00,,,0.00,meteohub,2013-07-30 15:01:00,
2013-07-30 08:06:00,62.6,44.8,30.25,ESE,117,1.0,2.0,52,0.00,,,0.00,meteohub,2013-07-30 15:06:00,
2013-07-30 08:11:00,63.0,45.1,30.25,ESE,102,0.0,2.0,52,0.00,,,0.00,meteohub,2013-07-30 15:11:00,
2013-07-30 08:16:00,63.9,45.3,30.25,ESE,103,0.0,1.0,51,0.00,,,0.00,meteohub,2013-07-30 15:16:00,
2013-07-30 08:21:00,64.8,45.1,30.25,ESE,102,0.0,1.0,49,0.00,,,0.00,meteohub,2013-07-30 15:21:00,
2013-07-30 08:26:00,66.0,46.4,30.25,East,96,0.0,1.0,49,0.00,,,0.00,meteohub,2013-07-30 15:26:00,
2013-07-30 08:32:00,67.6,46.8,30.24,East,95,0.0,1.0,47,0.00,,,0.00,meteohub,2013-07-30 15:32:00,
2013-07-30 08:37:00,68.5,45.1,30.24,East,95,0.0,1.0,43,0.00,,,0.00,meteohub,2013-07-30 15:37:00,
2013-07-30 08:42:00,69.1,43.2,30.24,South,189,1.0,3.0,39,0.00,,,0.00,meteohub,2013-07-30 15:42:00,
2013-07-30 08:47:00,69.4,42.8,30.24,WSW,244,0.0,8.0,38,0.00,,,0.00,meteohub,2013-07-30 15:47:00,
2013-07-30 08:52:00,69.8,41.0,30.24,SE,144,3.0,8.0,35,0.00,,,0.00,meteohub,2013-07-30 15:52:00,
2013-07-30 08:57:00,70.2,41.2,30.24,SE,132,1.0,8.0,35,0.00,,,0.00,meteohub,2013-07-30 15:57:00,
2013-07-30 09:02:00,70.0,39.6,30.24,SSE,153,0.0,5.0,33,0.00,,,0.00,meteohub,2013-07-30 16:02:00,
2013-07-30 09:07:00,70.3,39.9,30.24,WNW,289,2.0,5.0,33,0.00,,,0.00,meteohub,2013-07-30 16:07:00,
2013-07-30 09:12:00,70.2,39.7,30.24,South,190,1.0,5.0,33,0.00,,,0.00,meteohub,2013-07-30 16:12:00,
2013-07-30 09:17:00,70.5,40.8,30.24,NW,311,1.0,3.0,34,0.00,,,0.00,meteohub,2013-07-30 16:17:00,
2013-07-30 09:22:00,71.1,40.5,30.24,SSW,194,2.0,5.0,33,0.00,,,0.00,meteohub,2013-07-30 16:22:00,
2013-07-30 09:27:00,71.2,39.9,30.24,South,176,0.0,5.0,32,0.00,,,0.00,meteohub,2013-07-30 16:27:00,
2013-07-30 09:32:00,71.4,37.6,30.24,SSW,211,2.0,5.0,29,0.00,,,0.00,meteohub,2013-07-30 16:32:00,
2013-07-30 09:37:00,72.0,39.7,30.24,SSW,211,2.0,7.0,31,0.00,,,0.00,meteohub,2013-07-30 16:37:00,
2013-07-30 09:42:00,72.1,39.9,30.24,NNW,346,1.0,7.0,31,0.00,,,0.00,meteohub,2013-07-30 16:42:00,
2013-07-30 09:47:00,72.1,40.6,30.24,SE,146,0.0,5.0,32,0.00,,,0.00,meteohub,2013-07-30 16:47:00,
2013-07-30 09:52:00,72.3,39.9,30.24,NNE,17,1.0,4.0,31,0.00,,,0.00,meteohub,2013-07-30 16:52:00,
2013-07-30 09:57:00,72.5,39.4,30.24,WNW,292,0.0,5.0,30,0.00,,,0.00,meteohub,2013-07-30 16:57:00,
2013-07-30 10:03:00,72.7,39.4,30.24,NNW,331,3.0,5.0,30,0.00,,,0.00,meteohub,2013-07-30 17:03:00,
2013-07-30 10:08:00,73.0,39.7,30.24,SSW,207,2.0,4.0,30,0.00,,,0.00,meteohub,2013-07-30 17:08:00,
2013-07-30 10:13:00,72.7,38.7,30.24,SE,132,1.0,4.0,29,0.00,,,0.00,meteohub,2013-07-30 17:13:00,
2013-07-30 10:18:00,72.9,39.6,30.24,WNW,291,1.0,4.0,30,0.00,,,0.00,meteohub,2013-07-30 17:18:00,
2013-07-30 10:23:00,73.0,37.9,30.24,SSW,211,1.0,4.0,28,0.00,,,0.00,meteohub,2013-07-30 17:23:00,
2013-07-30 10:28:00,73.0,38.8,30.24,SSW,203,0.0,6.0,29,0.00,,,0.00,meteohub,2013-07-30 17:28:00,
2013-07-30 10:33:00,73.2,39.9,30.24,SSE,157,1.0,7.0,30,0.00,,,0.00,meteohub,2013-07-30 17:33:00,
2013-07-30 10:38:00,73.0,39.7,30.24,NNE,24,0.0,7.0,30,0.00,,,0.00,meteohub,2013-07-30 17:38:00,
2013-07-30 10:43:00,73.6,36.5,30.25,South,179,2.0,7.0,26,0.00,,,0.00,meteohub,2013-07-30 17:43:00,
2013-07-30 10:48:00,73.9,36.0,30.25,SW,214,1.0,6.0,25,0.00,,,0.00,meteohub,2013-07-30 17:48:00,
2013-07-30 10:53:00,73.6,36.5,30.25,WNW,286,0.0,6.0,26,0.00,,,0.00,meteohub,2013-07-30 17:53:00,
2013-07-30 10:58:00,73.9,37.8,30.25,ENE,57,1.0,6.0,27,0.00,,,0.00,meteohub,2013-07-30 17:58:00,
2013-07-30 11:03:00,74.5,36.3,30.25,East,96,1.0,6.0,25,0.00,,,0.00,meteohub,2013-07-30 18:03:00,
2013-07-30 11:09:00,74.7,36.5,30.25,NNW,346,3.0,5.0,25,0.00,,,0.00,meteohub,2013-07-30 18:09:00,
2013-07-30 11:14:00,74.8,36.7,30.25,SSE,150,3.0,5.0,25,0.00,,,0.00,meteohub,2013-07-30 18:14:00,
2013-07-30 11:19:00,75.2,37.0,30.25,ESE,105,1.0,5.0,25,0.00,,,0.00,meteohub,2013-07-30 18:19:00,
2013-07-30 11:24:00,75.7,38.5,30.25,SW,225,1.0,7.0,26,0.00,,,0.00,meteohub,2013-07-30 18:24:00,
2013-07-30 11:29:00,75.0,37.8,30.25,NNW,337,2.0,7.0,26,0.00,,,0.00,meteohub,2013-07-30 18:29:00,
2013-07-30 11:34:00,75.0,34.7,30.25,WSW,251,1.0,7.0,23,0.00,,,0.00,meteohub,2013-07-30 18:34:00,
2013-07-30 11:39:00,75.0,36.9,30.25,SSE,160,0.0,5.0,25,0.00,,,0.00,meteohub,2013-07-30 18:39:00,
2013-07-30 11:44:00,75.0,37.8,30.25,SW,227,2.0,9.0,26,0.00,,,0.00,meteohub,2013-07-30 18:44:00,
2013-07-30 11:49:00,75.7,40.3,30.25,WNW,286,1.0,9.0,28,0.00,,,0.00,meteohub,2013-07-30 18:49:00,
2013-07-30 11:50:00,75.6,40.1,30.25,WSW,252,0.0,9.0,28,0.00,,,0.00,meteohub,2013-07-30 18:50:00,
2013-07-30 11:55:00,74.7,42.1,30.24,SSE,152,2.0,9.0,31,0.00,,,0.00,meteohub,2013-07-30 18:55:00,
2013-07-30 12:00:00,75.0,38.8,30.24,NNW,338,0.0,5.0,27,0.00,,,0.00,meteohub,2013-07-30 19:00:00,
2013-07-30 12:05:00,75.4,44.2,30.24,WNW,288,2.0,5.0,33,0.00,,,0.00,meteohub,2013-07-30 19:05:00,
2013-07-30 12:10:00,74.8,38.7,30.24,NW,319,0.0,5.0,27,0.00,,,0.00,meteohub,2013-07-30 19:10:00,
2013-07-30 12:15:00,75.0,35.8,30.24,East,90,0.0,5.0,24,0.00,,,0.00,meteohub,2013-07-30 19:15:00,
2013-07-30 12:20:00,75.4,38.1,30.24,WNW,284,0.0,5.0,26,0.00,,,0.00,meteohub,2013-07-30 19:20:00,
2013-07-30 12:26:00,75.7,40.3,30.24,WNW,286,0.0,5.0,28,0.00,,,0.00,meteohub,2013-07-30 19:26:00,
2013-07-30 12:31:00,76.3,40.8,30.23,SW,230,0.0,7.0,28,0.00,,,0.00,meteohub,2013-07-30 19:31:00,
2013-07-30 12:36:00,76.5,39.0,30.23,SW,222,0.0,7.0,26,0.00,,,0.00,meteohub,2013-07-30 19:36:00,
2013-07-30 12:41:00,76.8,40.3,30.23,NW,311,0.0,7.0,27,0.00,,,0.00,meteohub,2013-07-30 19:41:00,
2013-07-30 12:46:00,76.5,41.0,30.23,WSW,244,1.0,5.0,28,0.00,,,0.00,meteohub,2013-07-30 19:46:00,
2013-07-30 12:51:00,76.6,41.2,30.23,SW,232,0.0,5.0,28,0.00,,,0.00,meteohub,2013-07-30 19:51:00,
2013-07-30 12:56:00,77.2,36.5,30.23,SSW,203,0.0,5.0,23,0.00,,,0.00,meteohub,2013-07-30 19:56:00,
2013-07-30 13:02:00,77.7,39.0,30.23,South,175,1.0,5.0,25,0.00,,,0.00,meteohub,2013-07-30 20:02:00,
2013-07-30 13:07:00,77.5,39.9,30.23,SW,223,0.0,5.0,26,0.00,,,0.00,meteohub,2013-07-30 20:07:00,
2013-07-30 13:12:00,77.2,43.3,30.22,West,277,0.0,12.0,30,0.00,,,0.00,meteohub,2013-07-30 20:12:00,
2013-07-30 13:17:00,77.2,39.6,30.22,SSW,192,1.0,12.0,26,0.00,,,0.00,meteohub,2013-07-30 20:17:00,
2013-07-30 13:22:00,77.4,40.8,30.22,WSW,241,0.0,12.0,27,0.00,,,0.00,meteohub,2013-07-30 20:22:00,
2013-07-30 13:27:00,77.4,42.6,30.22,WNW,289,1.0,4.0,29,0.00,,,0.00,meteohub,2013-07-30 20:27:00,
2013-07-30 13:32:00,77.2,46.6,30.22,NNW,338,3.0,5.0,34,0.00,,,0.00,meteohub,2013-07-30 20:32:00,
2013-07-30 13:37:00,76.6,39.2,30.22,SSW,210,1.0,5.0,26,0.00,,,0.00,meteohub,2013-07-30 20:37:00,
2013-07-30 13:42:00,76.3,47.3,30.22,NW,313,12.0,12.0,36,0.00,,,0.00,meteohub,2013-07-30 20:42:00,
2013-07-30 13:47:00,72.3,39.9,30.22,NW,319,4.0,15.0,31,0.00,,,0.00,meteohub,2013-07-30 20:47:00,
2013-07-30 13:52:00,71.6,47.3,30.22,NW,321,12.0,17.0,42,0.00,,,0.00,meteohub,2013-07-30 20:52:00,
2013-07-30 13:58:00,71.2,45.7,30.22,NW,324,6.0,17.0,40,0.00,,,0.00,meteohub,2013-07-30 20:58:00,
2013-07-30 14:03:00,71.2,43.7,30.22,NW,319,1.0,17.0,37,0.00,,,0.00,meteohub,2013-07-30 21:03:00,
2013-07-30 14:08:00,71.2,46.9,30.22,NW,326,7.0,14.0,42,0.00,,,0.00,meteohub,2013-07-30 21:08:00,
2013-07-30 14:13:00,70.5,49.8,30.22,NNW,344,12.0,15.0,48,0.00,,,0.00,meteohub,2013-07-30 21:13:00,
2013-07-30 14:18:00,70.0,46.4,30.22,NNW,340,10.0,16.0,43,0.00,,,0.00,meteohub,2013-07-30 21:18:00,
2013-07-30 14:23:00,69.4,51.1,30.22,NNW,343,15.0,16.0,52,0.00,,,0.00,meteohub,2013-07-30 21:23:00,
2013-07-30 14:28:00,69.3,49.3,30.22,NE,42,15.0,17.0,49,0.00,,,0.00,meteohub,2013-07-30 21:28:00,
2013-07-30 14:33:00,69.3,48.2,30.22,NNW,338,13.0,18.0,47,0.00,,,0.00,meteohub,2013-07-30 21:33:00,
2013-07-30 14:38:00,69.3,48.2,30.22,NNE,28,11.0,18.0,47,0.00,,,0.00,meteohub,2013-07-30 21:38:00,
2013-07-30 14:43:00,69.4,47.1,30.22,NE,36,16.0,19.0,45,0.00,,,0.00,meteohub,2013-07-30 21:43:00,
2013-07-30 14:48:00,70.0,43.9,30.22,NE,35,13.0,19.0,39,0.00,,,0.00,meteohub,2013-07-30 21:48:00,
2013-07-30 14:53:00,70.0,47.1,30.22,NNW,331,10.0,20.0,44,0.00,,,0.00,meteohub,2013-07-30 21:53:00,
2013-07-30 14:58:00,70.0,48.2,30.22,NNE,24,10.0,20.0,46,0.00,,,0.00,meteohub,2013-07-30 21:58:00,
2013-07-30 15:03:00,70.2,46.6,30.22,NNW,341,10.0,17.0,43,0.00,,,0.00,meteohub,2013-07-30 22:03:00,
2013-07-30 15:08:00,70.0,51.1,30.22,NE,39,13.0,17.0,51,0.00,,,0.00,meteohub,2013-07-30 22:08:00,
2013-07-30 15:13:00,70.0,51.1,30.21,NNW,330,8.0,17.0,51,0.00,,,0.00,meteohub,2013-07-30 22:13:00,
2013-07-30 15:19:00,70.0,50.0,30.21,NNE,28,14.0,17.0,49,0.00,,,0.00,meteohub,2013-07-30 22:19:00,
2013-07-30 15:24:00,70.0,50.0,30.21,NNE,12,15.0,18.0,49,0.00,,,0.00,meteohub,2013-07-30 22:24:00,
2013-07-30 15:29:00,70.0,49.5,30.21,NNW,343,11.0,18.0,48,0.00,,,0.00,meteohub,2013-07-30 22:29:00,
2013-07-30 15:34:00,70.3,48.0,30.21,NNE,28,10.0,18.0,45,0.00,,,0.00,meteohub,2013-07-30 22:34:00,
2013-07-30 15:39:00,70.3,49.1,30.21,NNE,19,10.0,17.0,47,0.00,,,0.00,meteohub,2013-07-30 22:39:00,
2013-07-30 15:44:00,70.7,45.1,30.21,NNW,340,7.0,16.0,40,0.00,,,0.00,meteohub,2013-07-30 22:44:00,
2013-07-30 15:49:00,71.1,45.5,30.21,NNE,26,8.0,16.0,40,0.00,,,0.00,meteohub,2013-07-30 22:49:00,
2013-07-30 15:54:00,71.6,47.8,30.21,NW,320,6.0,16.0,43,0.00,,,0.00,meteohub,2013-07-30 22:54:00,
2013-07-30 15:59:00,71.8,44.8,30.20,NW,325,5.0,16.0,38,0.00,,,0.00,meteohub,2013-07-30 22:59:00,
2013-07-30 16:04:00,72.7,46.2,30.20,WSW,246,0.0,16.0,39,0.00,,,0.00,meteohub,2013-07-30 23:04:00,
2013-07-30 16:09:00,74.5,44.2,30.20,SW,217,1.0,11.0,34,0.00,,,0.00,meteohub,2013-07-30 23:09:00,
2013-07-30 16:14:00,75.6,45.1,30.20,SSW,211,0.0,11.0,34,0.00,,,0.00,meteohub,2013-07-30 23:14:00,
2013-07-30 16:19:00,76.6,47.7,30.20,SSW,205,1.0,9.0,36,0.00,,,0.00,meteohub,2013-07-30 23:19:00,
2013-07-30 16:24:00,76.8,45.5,30.20,South,171,0.0,4.0,33,0.00,,,0.00,meteohub,2013-07-30 23:24:00,
2013-07-30 16:29:00,77.2,45.0,30.21,SW,233,2.0,4.0,32,0.00,,,0.00,meteohub,2013-07-30 23:29:00,
2013-07-30 16:35:00,77.7,43.9,30.20,SW,227,1.0,6.0,30,0.00,,,0.00,meteohub,2013-07-30 23:35:00,
2013-07-30 16:40:00,78.1,44.1,30.20,SW,221,2.0,6.0,30,0.00,,,0.00,meteohub,2013-07-30 23:40:00,
2013-07-30 16:45:00,77.9,46.4,30.20,NW,325,4.0,4.0,33,0.00,,,0.00,meteohub,2013-07-30 23:45:00,
2013-07-30 16:50:00,78.1,43.2,30.21,NNE,29,1.0,4.0,29,0.00,,,0.00,meteohub,2013-07-30 23:50:00,
2013-07-30 16:55:00,78.1,43.2,30.21,ESE,107,3.0,7.0,29,0.00,,,0.00,meteohub,2013-07-30 23:55:00,
2013-07-30 17:00:00,78.3,44.2,30.20,WSW,245,0.0,7.0,30,0.00,,,0.00,meteohub,2013-07-31 00:00:00,
2013-07-30 17:05:00,78.3,45.1,30.20,SW,217,1.0,7.0,31,0.00,,,0.00,meteohub,2013-07-31 00:05:00,
2013-07-30 17:10:00,78.3,46.0,30.20,SW,214,3.0,8.0,32,0.00,,,0.00,meteohub,2013-07-31 00:10:00,
2013-07-30 17:15:00,77.7,45.5,30.19,SSE,150,1.0,8.0,32,0.00,,,0.00,meteohub,2013-07-31 00:15:00,
2013-07-30 17:20:00,78.1,43.2,30.19,SW,233,2.0,8.0,29,0.00,,,0.00,meteohub,2013-07-31 00:20:00,
2013-07-30 17:25:00,78.1,44.1,30.20,ESE,121,0.0,6.0,30,0.00,,,0.00,meteohub,2013-07-31 00:25:00,
2013-07-30 17:30:00,78.3,43.3,30.19,NNW,340,1.0,6.0,29,0.00,,,0.00,meteohub,2013-07-31 00:30:00,
2013-07-30 17:35:00,78.1,43.2,30.19,SE,128,2.0,6.0,29,0.00,,,0.00,meteohub,2013-07-31 00:35:00,
2013-07-30 17:40:00,77.7,41.0,30.20,ESE,104,0.0,6.0,27,0.00,,,0.00,meteohub,2013-07-31 00:40:00,
2013-07-30 17:45:00,77.9,44.1,30.20,ENE,76,1.0,6.0,30,0.00,,,0.00,meteohub,2013-07-31 00:45:00,
2013-07-30 17:50:00,78.1,43.2,30.19,ESE,104,1.0,6.0,29,0.00,,,0.00,meteohub,2013-07-31 00:50:00,
2013-07-30 17:55:00,77.7,43.9,30.19,South,173,1.0,5.0,30,0.00,,,0.00,meteohub,2013-07-31 00:55:00,
2013-07-30 18:00:00,77.7,44.6,30.19,WNW,298,1.0,4.0,31,0.00,,,0.00,meteohub,2013-07-31 01:00:00,
2013-07-30 18:05:00,77.5,41.9,30.19,SSE,155,2.0,5.0,28,0.00,,,0.00,meteohub,2013-07-31 01:05:00,
2013-07-30 18:11:00,77.7,43.0,30.19,SSE,160,0.0,6.0,29,0.00,,,0.00,meteohub,2013-07-31 01:11:00,
2013-07-30 18:16:00,77.7,43.0,30.19,SE,131,0.0,6.0,29,0.00,,,0.00,meteohub,2013-07-31 01:16:00,
2013-07-30 18:21:00,77.4,43.5,30.19,SW,236,1.0,6.0,30,0.00,,,0.00,meteohub,2013-07-31 01:21:00,
2013-07-30 18:26:00,77.4,42.6,30.19,South,185,1.0,6.0,29,0.00,,,0.00,meteohub,2013-07-31 01:26:00,
2013-07-30 18:31:00,77.0,43.2,30.19,ESE,109,1.0,6.0,30,0.00,,,0.00,meteohub,2013-07-31 01:31:00,
2013-07-30 18:36:00,76.6,42.8,30.19,SSW,198,2.0,4.0,30,0.00,,,0.00,meteohub,2013-07-31 01:36:00,
2013-07-30 18:41:00,76.3,43.3,30.19,NW,321,0.0,4.0,31,0.00,,,0.00,meteohub,2013-07-31 01:41:00,
2013-07-30 18:46:00,75.7,43.7,30.19,NNW,333,0.0,3.0,32,0.00,,,0.00,meteohub,2013-07-31 01:46:00,
2013-07-30 18:51:00,75.7,43.0,30.19,South,171,0.0,3.0,31,0.00,,,0.00,meteohub,2013-07-31 01:51:00,
2013-07-30 18:56:00,75.4,42.6,30.19,South,175,1.0,3.0,31,0.00,,,0.00,meteohub,2013-07-31 01:56:00,
2013-07-30 19:02:00,74.7,42.1,30.19,SSW,211,1.0,5.0,31,0.00,,,0.00,meteohub,2013-07-31 02:02:00,
2013-07-30 19:07:00,74.1,44.8,30.19,SE,144,0.0,5.0,35,0.00,,,0.00,meteohub,2013-07-31 02:07:00,
2013-07-30 19:12:00,73.8,42.8,30.19,South,176,0.0,5.0,33,0.00,,,0.00,meteohub,2013-07-31 02:12:00,
2013-07-30 19:17:00,73.2,42.4,30.20,East,93,0.0,4.0,33,0.00,,,0.00,meteohub,2013-07-31 02:17:00,
2013-07-30 19:22:00,72.9,42.1,30.20,SE,146,1.0,2.0,33,0.00,,,0.00,meteohub,2013-07-31 02:22:00,
2013-07-30 19:27:00,72.3,42.4,30.20,SE,128,0.0,3.0,34,0.00,,,0.00,meteohub,2013-07-31 02:27:00,
2013-07-30 19:32:00,71.8,41.9,30.20,ESE,104,2.0,3.0,34,0.00,,,0.00,meteohub,2013-07-31 02:32:00,
2013-07-30 19:37:00,71.4,42.3,30.20,SSW,196,0.0,3.0,35,0.00,,,0.00,meteohub,2013-07-31 02:37:00,
2013-07-30 19:42:00,71.2,41.4,30.21,ESE,109,0.0,2.0,34,0.00,,,0.00,meteohub,2013-07-31 02:42:00,
2013-07-30 19:47:00,70.9,41.9,30.21,ESE,105,0.0,2.0,35,0.00,,,0.00,meteohub,2013-07-31 02:47:00,
2013-07-30 19:52:00,70.7,41.7,30.21,ESE,105,0.0,2.0,35,0.00,,,0.00,meteohub,2013-07-31 02:52:00,
2013-07-30 19:57:00,70.3,41.4,30.21,South,186,0.0,1.0,35,0.00,,,0.00,meteohub,2013-07-31 02:57:00,
2013-07-30 20:03:00,70.2,41.9,30.21,East,98,0.0,1.0,36,0.00,,,0.00,meteohub,2013-07-31 03:03:00,
2013-07-30 20:08:00,69.6,41.5,30.21,SE,144,0.0,1.0,36,0.00,,,0.00,meteohub,2013-07-31 03:08:00,
2013-07-30 20:13:00,69.4,41.4,30.21,SSE,155,0.0,2.0,36,0.00,,,0.00,meteohub,2013-07-31 03:13:00,
2013-07-30 20:18:00,69.1,41.0,30.22,South,188,0.0,2.0,36,0.00,,,0.00,meteohub,2013-07-31 03:18:00,
2013-07-30 20:23:00,68.7,41.4,30.22,SSE,167,0.0,2.0,37,0.00,,,0.00,meteohub,2013-07-31 03:23:00,
2013-07-30 20:28:00,68.4,41.0,30.22,East,97,1.0,4.0,37,0.00,,,0.00,meteohub,2013-07-31 03:28:00,
2013-07-30 20:33:00,68.0,40.8,30.22,SSE,151,0.0,4.0,37,0.00,,,0.00,meteohub,2013-07-31 03:33:00,
2013-07-30 20:38:00,67.6,41.2,30.22,East,94,0.0,2.0,38,0.00,,,0.00,meteohub,2013-07-31 03:38:00,
2013-07-30 20:43:00,67.3,40.8,30.22,East,94,0.0,2.0,38,0.00,,,0.00,meteohub,2013-07-31 03:43:00,
2013-07-30 20:48:00,66.9,41.2,30.22,East,94,0.0,1.0,39,0.00,,,0.00,meteohub,2013-07-31 03:48:00,
2013-07-30 20:52:00,66.7,41.0,30.22,East,94,0.0,1.0,39,0.00,,,0.00,meteohub,2013-07-31 03:52:00,
2013-07-30 20:57:00,66.4,40.6,30.22,SSE,149,0.0,1.0,39,0.00,,,0.00,meteohub,2013-07-31 03:57:00,
2013-07-30 21:02:00,65.8,40.8,30.22,SSE,148,0.0,1.0,40,0.00,,,0.00,meteohub,2013-07-31 04:02:00,
2013-07-30 21:07:00,65.7,40.6,30.23,SE,128,0.0,1.0,40,0.00,,,0.00,meteohub,2013-07-31 04:07:00,
2013-07-30 21:08:00,65.5,40.5,30.23,South,176,0.0,1.0,40,0.00,,,0.00,meteohub,2013-07-31 04:08:00,
2013-07-30 21:09:00,65.5,40.5,30.23,SE,128,0.0,1.0,40,0.00,,,0.00,meteohub,2013-07-31 04:09:00,
2013-07-30 21:14:00,64.9,40.6,30.23,SE,132,0.0,1.0,41,0.00,,,0.00,meteohub,2013-07-31 04:14:00,
2013-07-30 21:19:00,64.8,40.5,30.23,SW,236,0.0,1.0,41,0.00,,,0.00,meteohub,2013-07-31 04:19:00,
2013-07-30 21:24:00,64.6,40.3,30.23,South,176,0.0,1.0,41,0.00,,,0.00,meteohub,2013-07-31 04:24:00,
2013-07-30 21:29:00,64.6,41.0,30.24,SSE,161,0.0,1.0,42,0.00,,,0.00,meteohub,2013-07-31 04:29:00,
2013-07-30 21:34:00,64.4,40.8,30.24,SSE,152,0.0,1.0,42,0.00,,,0.00,meteohub,2013-07-31 04:34:00,
2013-07-30 21:40:00,64.2,40.6,30.24,SE,144,0.0,1.0,42,0.00,,,0.00,meteohub,2013-07-31 04:40:00,
2013-07-30 21:45:00,64.0,40.5,30.24,SE,142,0.0,1.0,42,0.00,,,0.00,meteohub,2013-07-31 04:45:00,
2013-07-30 21:50:00,63.9,41.0,30.24,SSE,164,0.0,1.0,43,0.00,,,0.00,meteohub,2013-07-31 04:50:00,
2013-07-30 21:55:00,63.7,40.8,30.24,SSW,205,0.0,1.0,43,0.00,,,0.00,meteohub,2013-07-31 04:55:00,
2013-07-30 22:00:00,63.5,41.2,30.24,SSW,205,0.0,1.0,44,0.00,,,0.00,meteohub,2013-07-31 05:00:00,
2013-07-30 22:05:00,63.3,41.0,30.24,ESE,112,0.0,1.0,44,0.00,,,0.00,meteohub,2013-07-31 05:05:00,
2013-07-30 22:10:00,63.1,40.8,30.24,East,92,0.0,1.0,44,0.00,,,0.00,meteohub,2013-07-31 05:10:00,
2013-07-30 22:15:00,63.0,41.4,30.24,East,97,0.0,1.0,45,0.00,,,0.00,meteohub,2013-07-31 05:15:00,
2013-07-30 22:20:00,62.6,41.0,30.24,South,176,0.0,1.0,45,0.00,,,0.00,meteohub,2013-07-31 05:20:00,
2013-07-30 22:25:00,62.2,40.6,30.24,South,188,0.0,1.0,45,0.00,,,0.00,meteohub,2013-07-31 05:25:00,
2013-07-30 22:30:00,62.1,40.5,30.24,South,169,0.0,1.0,45,0.00,,,0.00,meteohub,2013-07-31 05:30:00,
2013-07-30 22:35:00,61.9,40.8,30.24,SSE,168,0.0,0.0,46,0.00,,,0.00,meteohub,2013-07-31 05:35:00,
2013-07-30 22:40:00,61.7,40.6,30.24,SSE,165,0.0,1.0,46,0.00,,,0.00,meteohub,2013-07-31 05:40:00,
2013-07-30 22:45:00,61.7,40.6,30.24,South,169,0.0,1.0,46,0.00,,,0.00,meteohub,2013-07-31 05:45:00,
2013-07-30 22:50:00,61.9,40.8,30.25,South,174,0.0,1.0,46,0.00,,,0.00,meteohub,2013-07-31 05:50:00,
2013-07-30 22:56:00,61.9,40.8,30.24,SSW,192,0.0,1.0,46,0.00,,,0.00,meteohub,2013-07-31 05:56:00,
2013-07-30 23:01:00,61.9,40.8,30.24,SSE,163,0.0,1.0,46,0.00,,,0.00,meteohub,2013-07-31 06:01:00,
2013-07-30 23:06:00,61.9,40.8,30.24,SSW,209,0.0,1.0,46,0.00,,,0.00,meteohub,2013-07-31 06:06:00,
2013-07-30 23:11:00,62.1,41.0,30.24,SSW,198,0.0,1.0,46,0.00,,,0.00,meteohub,2013-07-31 06:11:00,
2013-07-30 23:16:00,62.1,41.0,30.24,SSE,156,0.0,1.0,46,0.00,,,0.00,meteohub,2013-07-31 06:16:00,
2013-07-30 23:21:00,61.9,40.8,30.24,South,176,0.0,1.0,46,0.00,,,0.00,meteohub,2013-07-31 06:21:00,
2013-07-30 23:26:00,61.9,40.8,30.24,South,176,0.0,1.0,46,0.00,,,0.00,meteohub,2013-07-31 06:26:00,
2013-07-30 23:31:00,61.7,40.6,30.24,SSE,147,0.0,0.0,46,0.00,,,0.00,meteohub,2013-07-31 06:31:00,
2013-07-30 23:36:00,61.3,41.0,30.24,SSE,159,0.0,1.0,47,0.00,,,0.00,meteohub,2013-07-31 06:36:00,
2013-07-30 23:42:00,61.2,40.8,30.24,SSE,161,0.0,2.0,47,0.00,,,0.00,meteohub,2013-07-31 06:42:00,
2013-07-30 23:47:00,61.0,41.2,30.24,SSE,161,0.0,2.0,48,0.00,,,0.00,meteohub,2013-07-31 06:47:00,
2013-07-30 23:52:00,61.0,41.2,30.24,ESE,120,0.0,0.0,48,0.00,,,0.00,meteohub,2013-07-31 06:52:00,
2013-07-30 23:57:00,60.6,40.8,30.24,ESE,120,0.0,1.0,48,0.00,,,0.00,meteohub,2013-07-31 06:57:00,